When you browse on this site, cookies collect data to enhance your experience and personalize the content and advertising you see.
Visit our Privacy Policy to learn more. By continuing to use the site, you agree to this use of cookies and data.
  • In Hungary
  • List of Countries
  • For 7 days
  • Water Temperature
  • Satellite Maps
  • Weather Map
  • News
  • Weather Widgets
  • user-avatar
    Login

    Hourly Weather Chhatapur

    Today, 18 January, Friday

    Time Temperature Precipitation Wind Pressure Humidity
    00:00 +18°C° 0 mm 1 mps 756 mmHg 54%
    01:00 +18°C° 0 mm 1 mps 756 mmHg 55%
    02:00 +16°C° 0 mm 1 mps 756 mmHg 57%
    03:00 +16°C° 0 mm 1 mps 756 mmHg 58%
    04:00 +16°C° 0 mm 1 mps 756 mmHg 58%
    05:00 +15°C° 0 mm 1 mps 756 mmHg 59%
    06:00 +14°C° 0 mm 1 mps 756 mmHg 63%
    07:00 +16°C° 0 mm 1 mps 756 mmHg 59%
    08:00 +18°C° 0 mm 1 mps 757 mmHg 55%
    09:00 +20°C° 0 mm 1 mps 757 mmHg 50%
    10:00 +22°C° 0 mm 1 mps 757 mmHg 44%
    11:00 +22°C° 0 mm 0 mps 757 mmHg 38%
    12:00 +24°C° 0 mm 0 mps 757 mmHg 33%
    13:00 +26°C° 0 mm 1 mps 756 mmHg 32%
    14:00 +27°C° 0 mm 1 mps 755 mmHg 31%
    15:00 +27°C° 0 mm 1 mps 755 mmHg 30%
    16:00 +26°C° 0 mm 2 mps 755 mmHg 33%
    17:00 +24°C° 0 mm 2 mps 755 mmHg 37%
    18:00 +23°C° 0 mm 2 mps 755 mmHg 41%
    19:00 +21°C° 0 mm 2 mps 756 mmHg 45%
    20:00 +20°C° 0 mm 2 mps 756 mmHg 49%
    21:00 +19°C° 0 mm 2 mps 757 mmHg 53%
    22:00 +18°C° 0 mm 2 mps 757 mmHg 55%
    23:00 +18°C° 0 mm 2 mps 757 mmHg 56%

    Tomorrow, 19 January, Saturday

    Time Temperature Precipitation Wind Pressure Humidity
    00:00 +17°C° 0 mm 2 mps 757 mmHg 58%
    01:00 +17°C° 0 mm 2 mps 757 mmHg 58%
    02:00 +16°C° 0 mm 1 mps 757 mmHg 59%
    03:00 +16°C° 0 mm 1 mps 757 mmHg 59%
    04:00 +15°C° 0 mm 1 mps 757 mmHg 59%
    05:00 +15°C° 0 mm 1 mps 757 mmHg 58%
    06:00 +15°C° 0 mm 1 mps 756 mmHg 58%
    07:00 +16°C° 0 mm 1 mps 757 mmHg 53%
    08:00 +19°C° 0 mm 1 mps 757 mmHg 48%
    09:00 +20°C° 0 mm 1 mps 758 mmHg 43%
    10:00 +22°C° 0 mm 1 mps 758 mmHg 39%
    11:00 +24°C° 0 mm 1 mps 758 mmHg 36%
    12:00 +26°C° 0 mm 1 mps 758 mmHg 32%
    13:00 +26°C° 0 mm 1 mps 757 mmHg 31%
    14:00 +27°C° 0 mm 1 mps 757 mmHg 30%
    15:00 +27°C° 0 mm 2 mps 756 mmHg 29%
    16:00 +26°C° 0 mm 2 mps 756 mmHg 32%
    17:00 +24°C° 0 mm 2 mps 756 mmHg 36%
    18:00 +23°C° 0 mm 2 mps 756 mmHg 39%
    19:00 +21°C° 0 mm 2 mps 756 mmHg 42%
    20:00 +20°C° 0 mm 2 mps 757 mmHg 45%
    21:00 +19°C° 0 mm 2 mps 757 mmHg 49%
    22:00 +18°C° 0 mm 2 mps 757 mmHg 51%
    23:00 +18°C° 0 mm 2 mps 757 mmHg 52%

    Day after tomorrow, 20 January, Sunday

    Time Temperature Precipitation Wind Pressure Humidity
    00:00 +18°C° 0 mm 1 mps 757 mmHg 54%
    01:00 +18°C° 0 mm 1 mps 757 mmHg 55%
    02:00 +16°C° 0 mm 1 mps 757 mmHg 56%
    03:00 +16°C° 0 mm 1 mps 756 mmHg 57%
    04:00 +16°C° 0 mm 1 mps 757 mmHg 58%
    05:00 +15°C° 0 mm 1 mps 757 mmHg 59%
    06:00 +15°C° 0 mm 1 mps 757 mmHg 60%
    07:00 +16°C° 0 mm 1 mps 757 mmHg 56%
    08:00 +19°C° 0 mm 1 mps 758 mmHg 52%
    09:00 +20°C° 0 mm 1 mps 758 mmHg 47%
    10:00 +22°C° 0 mm 1 mps 758 mmHg 43%
    11:00 +24°C° 0 mm 1 mps 758 mmHg 38%
    12:00 +26°C° 0 mm 1 mps 758 mmHg 34%
    13:00 +27°C° 0 mm 1 mps 757 mmHg 32%
    14:00 +27°C° 0 mm 2 mps 756 mmHg 31%
    15:00 +27°C° 0 mm 2 mps 756 mmHg 29%
    16:00 +26°C° 0 mm 2 mps 756 mmHg 33%
    17:00 +24°C° 0 mm 2 mps 756 mmHg 37%
    18:00 +23°C° 0 mm 2 mps 756 mmHg 40%
    19:00 +21°C° 0 mm 2 mps 757 mmHg 43%
    20:00 +20°C° 0 mm 2 mps 757 mmHg 46%
    21:00 +19°C° 0 mm 2 mps 758 mmHg 49%
    22:00 +19°C° 0 mm 2 mps 758 mmHg 50%
    23:00 +19°C° 0 mm 1 mps 758 mmHg 52%

    21 January, Monday

    Time Temperature Precipitation Wind Pressure Humidity
    00:00 +18°C° 0 mm 1 mps 757 mmHg 53%
    01:00 +18°C° 0 mm 1 mps 757 mmHg 53%
    02:00 +16°C° 0 mm 1 mps 757 mmHg 53%
    03:00 +16°C° 0 mm 1 mps 756 mmHg 53%
    04:00 +16°C° 0 mm 1 mps 756 mmHg 54%
    05:00 +15°C° 0 mm 1 mps 756 mmHg 54%
    06:00 +15°C° 0 mm 1 mps 756 mmHg 55%
    07:00 +16°C° 0 mm 1 mps 757 mmHg 52%
    08:00 +19°C° 0 mm 1 mps 758 mmHg 48%
    09:00 +19°C° 0 mm 2 mps 759 mmHg 45%
    10:00 +22°C° 0 mm 1 mps 758 mmHg 41%
    11:00 +24°C° 0 mm 1 mps 758 mmHg 38%
    12:00 +26°C° 0 mm 1 mps 758 mmHg 34%
    13:00 +26°C° 0 mm 1 mps 757 mmHg 32%
    14:00 +27°C° 0 mm 1 mps 756 mmHg 31%
    15:00 +28°C° 0 mm 1 mps 755 mmHg 30%
    16:00 +26°C° 0 mm 1 mps 756 mmHg 33%
    17:00 +25°C° 0 mm 1 mps 756 mmHg 36%
    18:00 +23°C° 0 mm 1 mps 756 mmHg 40%
    19:00 +22°C° 0 mm 1 mps 756 mmHg 42%
    20:00 +19°C° 0 mm 0 mps 757 mmHg 44%
    21:00 +18°C° 0 mm 0 mps 758 mmHg 46%
    22:00 +20°C° 0 mm 1 mps 757 mmHg 46%
    23:00 +19°C° 0 mm 1 mps 757 mmHg 47%

    22 January, Tuesday

    Time Temperature Precipitation Wind Pressure Humidity
    00:00 +19°C° 0 mm 1 mps 757 mmHg 48%
    01:00 +18°C° 0 mm 1 mps 757 mmHg 49%
    02:00 +17°C° 0 mm 2 mps 756 mmHg 51%
    03:00 +16°C° 0 mm 2 mps 756 mmHg 52%
    04:00 +16°C° 0 mm 2 mps 756 mmHg 54%
    05:00 +16°C° 0 mm 2 mps 756 mmHg 55%
    06:00 +15°C° 0 mm 1 mps 756 mmHg 57%
    07:00 +17°C° 0 mm 2 mps 757 mmHg 54%
    08:00 +18°C° 0 mm 2 mps 757 mmHg 50%
    09:00 +20°C° 0 mm 2 mps 758 mmHg 46%
    10:00 +23°C° 0 mm 2 mps 758 mmHg 41%
    11:00 +25°C° 0 mm 2 mps 758 mmHg 36%
    12:00 +27°C° 0 mm 2 mps 758 mmHg 31%
    13:00 +27°C° 0 mm 2 mps 757 mmHg 30%
    14:00 +28°C° 0 mm 2 mps 756 mmHg 28%
    15:00 +28°C° 0 mm 2 mps 755 mmHg 27%
    16:00 +27°C° 0 mm 2 mps 756 mmHg 30%
    17:00 +26°C° 0 mm 2 mps 756 mmHg 33%
    18:00 +24°C° 0 mm 2 mps 756 mmHg 36%
    19:00 +24°C° 0 mm 1 mps 756 mmHg 38%
    20:00 +23°C° 0 mm 1 mps 757 mmHg 40%
    21:00 +22°C° 0 mm 1 mps 757 mmHg 41%
    22:00 +21°C° 0 mm 1 mps 757 mmHg 43%
    23:00 +21°C° 0 mm 1 mps 757 mmHg 45%

    23 January, Wednesday

    Time Temperature Precipitation Wind Pressure Humidity
    00:00 +20°C° 0 mm 1 mps 757 mmHg 47%
    01:00 +20°C° 0.1 mm 1 mps 757 mmHg 49%
    02:00 +19°C° 0.1 mm 1 mps 757 mmHg 52%
    03:00 +17°C° 0.1 mm 0 mps 756 mmHg 55%
    04:00 +18°C° 0.1 mm 1 mps 756 mmHg 56%
    05:00 +18°C° 0.1 mm 1 mps 757 mmHg 57%
    06:00 +18°C° 0.1 mm 1 mps 757 mmHg 58%
    07:00 +19°C° 0 mm 1 mps 757 mmHg 53%
    08:00 +20°C° 0 mm 1 mps 758 mmHg 48%
    09:00 +21°C° 0 mm 1 mps 758 mmHg 43%
    10:00 +23°C° 0 mm 1 mps 758 mmHg 39%
    11:00 +23°C° 0 mm 0 mps 758 mmHg 34%
    12:00 +26°C° 0 mm 0 mps 757 mmHg 30%
    13:00 +28°C° 0 mm 1 mps 756 mmHg 28%
    14:00 +29°C° 0 mm 2 mps 756 mmHg 27%
    15:00 +30°C° 0 mm 3 mps 755 mmHg 25%
    16:00 +28°C° 0 mm 3 mps 755 mmHg 29%
    17:00 +26°C° 0 mm 3 mps 755 mmHg 32%
    18:00 +25°C° 0 mm 2 mps 755 mmHg 36%
    19:00 +24°C° 0 mm 2 mps 756 mmHg 38%
    20:00 +23°C° 0 mm 2 mps 756 mmHg 40%
    21:00 +21°C° 0 mm 2 mps 757 mmHg 42%
    22:00 +20°C° 0 mm 2 mps 757 mmHg 43%
    23:00 +20°C° 0 mm 1 mps 757 mmHg 44%
    Show more